TimePDT,TemperatureF,Dew PointF,Humidity,Sea Level PressureIn,VisibilityMPH,Wind Direction,Wind SpeedMPH,Gust SpeedMPH,PrecipitationIn,Events,Conditions,WindDirDegrees,DateUTC
12:15 AM,53.6,53.6,100,30.01,9.0,North,-9999.0,-,N/A,,Scattered Clouds,0,2013-05-12 07:15:00
12:35 AM,53.6,53.6,100,30.01,9.0,Calm,Calm,-,N/A,,Mostly Cloudy,0,2013-05-12 07:35:00
12:55 AM,55.4,53.6,94,30.01,8.0,Calm,Calm,-,N/A,Rain,Light Rain,0,2013-05-12 07:55:00
1:15 AM,55.4,53.6,94,30.01,6.0,Calm,Calm,-,N/A,Rain,Light Rain,0,2013-05-12 08:15:00
1:55 AM,55.4,55.4,100,30.03,10.0,Calm,Calm,-,N/A,,Overcast,0,2013-05-12 08:55:00
2:15 AM,55.4,53.6,94,30.01,3.0,Calm,Calm,-,N/A,Rain,Rain,0,2013-05-12 09:15:00
2:35 AM,55.4,53.6,94,30.01,6.0,Calm,Calm,-,N/A,Rain,Light Rain,0,2013-05-12 09:35:00
2:55 AM,53.6,53.6,100,30.01,4.0,North,-9999.0,-,N/A,Rain,Light Rain,0,2013-05-12 09:55:00
3:15 AM,55.4,55.4,100,30.01,3.0,North,-9999.0,-,N/A,Rain,Light Rain,0,2013-05-12 10:15:00
3:35 AM,55.4,55.4,100,30.01,2.5,Calm,Calm,-,N/A,Rain,Rain,0,2013-05-12 10:35:00
3:55 AM,55.4,55.4,100,30.01,3.0,North,-9999.0,-,N/A,Rain,Rain,0,2013-05-12 10:55:00
4:15 AM,53.6,53.6,100,30.02,3.0,Calm,Calm,-,0.02,Rain,Rain,0,2013-05-12 11:15:00
4:35 AM,53.6,53.6,100,30.00,3.0,Calm,Calm,-,0.04,Rain,Light Rain,0,2013-05-12 11:35:00
4:55 AM,53.6,53.6,100,30.00,5.0,SE,4.6,-,0.04,,Mostly Cloudy,140,2013-05-12 11:55:00
5:15 AM,55.4,55.4,100,29.99,5.0,South,9.2,-,N/A,Rain,Light Rain,190,2013-05-12 12:15:00
5:35 AM,55.4,55.4,100,29.99,5.0,Calm,Calm,-,N/A,Rain,Light Rain,0,2013-05-12 12:35:00
5:55 AM,55.4,55.4,100,30.01,8.0,SSW,5.8,-,N/A,,Clear,210,2013-05-12 12:55:00
6:15 AM,55.4,55.4,100,30.02,9.0,South,4.6,-,N/A,,Mostly Cloudy,170,2013-05-12 13:15:00
6:35 AM,55.4,55.4,100,30.01,7.0,South,4.6,-,N/A,,Overcast,180,2013-05-12 13:35:00
6:55 AM,55.4,55.4,100,30.02,7.0,South,9.2,-,N/A,,Overcast,190,2013-05-12 13:55:00
7:15 AM,55.4,55.4,100,30.03,7.0,South,8.1,-,N/A,Rain,Light Rain,190,2013-05-12 14:15:00
7:35 AM,55.4,55.4,100,30.03,7.0,South,8.1,-,N/A,,Overcast,180,2013-05-12 14:35:00
7:55 AM,55.4,55.4,100,30.03,8.0,South,6.9,-,N/A,,Overcast,190,2013-05-12 14:55:00
8:15 AM,55.4,55.4,100,30.04,8.0,South,5.8,-,N/A,,Overcast,190,2013-05-12 15:15:00
8:35 AM,57.2,55.4,94,30.04,8.0,South,3.5,-,N/A,,Overcast,180,2013-05-12 15:35:00
8:55 AM,57.2,55.4,94,30.04,8.0,South,4.6,-,N/A,,Overcast,180,2013-05-12 15:55:00
9:15 AM,57.2,57.2,100,30.04,8.0,Calm,Calm,-,N/A,,Overcast,0,2013-05-12 16:15:00
9:35 AM,57.2,57.2,100,30.04,8.0,South,5.8,-,N/A,Rain,Light Rain,170,2013-05-12 16:35:00
9:55 AM,57.2,57.2,100,30.04,9.0,South,4.6,-,N/A,,Overcast,180,2013-05-12 16:55:00
10:15 AM,57.2,57.2,100,30.04,8.0,South,3.5,-,N/A,,Overcast,190,2013-05-12 17:15:00
10:35 AM,59.0,57.2,94,30.04,8.0,South,9.2,-,N/A,,Mostly Cloudy,190,2013-05-12 17:35:00
10:55 AM,59.0,57.2,94,30.04,9.0,South,6.9,-,N/A,,Overcast,190,2013-05-12 17:55:00
11:15 AM,59.0,57.2,94,30.04,6.0,SSW,9.2,-,N/A,Rain,Light Rain,200,2013-05-12 18:15:00
11:35 AM,59.0,57.2,94,30.05,8.0,South,6.9,-,N/A,,Overcast,190,2013-05-12 18:35:00
11:55 AM,59.0,57.2,94,30.05,5.0,South,3.5,-,N/A,,Overcast,180,2013-05-12 18:55:00
12:15 PM,59.0,57.2,94,30.06,3.0,South,5.8,-,N/A,,Overcast,180,2013-05-12 19:15:00
12:55 PM,59.0,57.2,94,30.05,9.0,South,8.1,-,N/A,,Overcast,190,2013-05-12 19:55:00
1:15 PM,59.0,57.2,94,30.05,8.0,South,6.9,-,N/A,,Overcast,190,2013-05-12 20:15:00
1:35 PM,60.8,57.2,88,30.05,9.0,South,6.9,-,N/A,,Overcast,180,2013-05-12 20:35:00
1:55 PM,62.6,57.2,82,30.05,10.0,South,10.4,-,N/A,,Mostly Cloudy,180,2013-05-12 20:55:00
2:15 PM,62.6,57.2,82,30.05,9.0,South,6.9,-,N/A,,Scattered Clouds,180,2013-05-12 21:15:00
2:35 PM,62.6,57.2,82,30.05,9.0,South,9.2,-,N/A,,Clear,180,2013-05-12 21:35:00
2:55 PM,62.6,57.2,82,30.04,10.0,South,8.1,-,N/A,,Clear,180,2013-05-12 21:55:00
3:35 PM,60.8,57.2,88,30.04,10.0,South,10.4,-,N/A,,Clear,190,2013-05-12 22:35:00
3:55 PM,62.6,57.2,82,30.04,9.0,South,6.9,-,N/A,,Partly Cloudy,180,2013-05-12 22:55:00
4:15 PM,62.6,57.2,82,30.03,9.0,South,9.2,-,N/A,,Partly Cloudy,190,2013-05-12 23:15:00
4:35 PM,60.8,57.2,88,30.02,4.0,SSW,9.2,-,N/A,Rain,Light Rain,200,2013-05-12 23:35:00
4:55 PM,60.8,57.2,88,30.02,9.0,SSW,8.1,-,N/A,Rain,Light Rain,210,2013-05-12 23:55:00
5:15 PM,60.8,57.2,88,30.01,7.0,SSW,6.9,-,N/A,Rain,Light Rain,210,2013-05-13 00:15:00
5:35 PM,59.0,57.2,94,30.02,1.2,North,-9999.0,-,0.03,Rain,Heavy Rain,0,2013-05-13 00:35:00
5:55 PM,59.0,59.0,100,30.01,5.0,Calm,Calm,-,0.04,Rain,Light Rain,0,2013-05-13 00:55:00
6:15 PM,59.0,59.0,100,30.00,9.0,South,4.6,-,N/A,,Clear,190,2013-05-13 01:15:00
6:35 PM,59.0,59.0,100,29.99,7.0,Calm,Calm,-,N/A,Rain,Light Rain,0,2013-05-13 01:35:00
7:15 PM,59.0,59.0,100,29.99,3.0,Calm,Calm,-,N/A,Rain,Light Rain,0,2013-05-13 02:15:00
7:35 PM,59.0,59.0,100,29.99,5.0,Calm,Calm,-,N/A,,Scattered Clouds,0,2013-05-13 02:35:00
7:55 PM,59.0,59.0,100,29.98,6.0,Calm,Calm,-,N/A,,Mostly Cloudy,0,2013-05-13 02:55:00
8:15 PM,57.2,57.2,100,29.99,5.0,Calm,Calm,-,N/A,,Overcast,0,2013-05-13 03:15:00
8:35 PM,57.2,57.2,100,29.98,8.0,Calm,Calm,-,N/A,,Overcast,0,2013-05-13 03:35:00
8:55 PM,57.2,57.2,100,29.98,10.0,Calm,Calm,-,N/A,,Overcast,0,2013-05-13 03:55:00
9:15 PM,59.0,57.2,94,29.98,9.0,Calm,Calm,-,N/A,,Overcast,0,2013-05-13 04:15:00
9:35 PM,57.2,57.2,100,29.98,10.0,Calm,Calm,-,N/A,,Overcast,0,2013-05-13 04:35:00
9:55 PM,57.2,57.2,100,29.99,10.0,Calm,Calm,-,N/A,,Overcast,0,2013-05-13 04:55:00
10:15 PM,57.2,57.2,100,29.99,10.0,Calm,Calm,-,N/A,,Mostly Cloudy,0,2013-05-13 05:15:00
10:35 PM,57.2,57.2,100,29.99,10.0,Calm,Calm,-,N/A,,Mostly Cloudy,0,2013-05-13 05:35:00
10:55 PM,57.2,57.2,100,29.99,10.0,Calm,Calm,-,N/A,,Mostly Cloudy,0,2013-05-13 05:55:00
11:15 PM,57.2,55.4,94,29.99,10.0,South,3.5,-,N/A,,Overcast,180,2013-05-13 06:15:00
11:35 PM,55.4,55.4,100,29.99,10.0,SSW,9.2,-,N/A,,Overcast,200,2013-05-13 06:35:00
11:55 PM,55.4,55.4,100,30.00,10.0,South,8.1,-,N/A,,Overcast,180,2013-05-13 06:55:00